• In Deutschland
  • Länderverzeichnis
  • Für 7 Tage
  • Wassertemperatur
  • Satellitenkarten
  • Wetterkarte
  • Widgets
  • user-avatar
    Anmelden

    Stündliche Wetter Lennestadt

    Heute, 24 Oktober, Dienstag

    Zeit Temperatur Niederschläge Wind Luftdruck Luftfeuchtigkeit
    00:00 +8°C° 0 mm 2 m/S 733 mmHg 96%
    01:00 +9°C° 0 mm 1 m/S 734 mmHg 97%
    02:00 +9°C° 0 mm 1 m/S 734 mmHg 96%
    03:00 +8°C° 0 mm 2 m/S 734 mmHg 96%
    04:00 +8°C° 0 mm 2 m/S 734 mmHg 96%
    05:00 +8°C° 0,1 mm 2 m/S 734 mmHg 96%
    06:00 +9°C° 0,1 mm 2 m/S 734 mmHg 95%
    07:00 +9°C° 0,1 mm 2 m/S 734 mmHg 95%
    08:00 +10°C° 0,1 mm 2 m/S 734 mmHg 94%
    09:00 +10°C° 0,1 mm 3 m/S 734 mmHg 92%
    10:00 +11°C° 0,1 mm 3 m/S 734 mmHg 91%
    11:00 +12°C° 0 mm 3 m/S 734 mmHg 88%
    12:00 +13°C° 0 mm 3 m/S 734 mmHg 85%
    13:00 +14°C° 0 mm 4 m/S 734 mmHg 83%
    14:00 +14°C° 0,1 mm 3 m/S 734 mmHg 85%
    15:00 +13°C° 0,1 mm 3 m/S 734 mmHg 88%
    16:00 +13°C° 0,1 mm 3 m/S 734 mmHg 90%
    17:00 +12°C° 0,1 mm 3 m/S 734 mmHg 92%
    18:00 +12°C° 0,1 mm 3 m/S 734 mmHg 93%
    19:00 +12°C° 0,1 mm 3 m/S 734 mmHg 94%
    20:00 +12°C° 0 mm 3 m/S 734 mmHg 94%
    21:00 +12°C° 0 mm 3 m/S 734 mmHg 95%
    22:00 +12°C° 0 mm 3 m/S 734 mmHg 95%
    23:00 +12°C° 0 mm 3 m/S 734 mmHg 95%

    Morgen, 25 Oktober, Mittwoch

    Zeit Temperatur Niederschläge Wind Luftdruck Luftfeuchtigkeit
    00:00 +12°C° 0 mm 3 m/S 734 mmHg 95%
    01:00 +12°C° 0 mm 3 m/S 734 mmHg 95%
    02:00 +12°C° 0 mm 3 m/S 734 mmHg 95%
    03:00 +12°C° 0 mm 3 m/S 734 mmHg 94%
    04:00 +12°C° 0 mm 3 m/S 734 mmHg 94%
    05:00 +12°C° 0 mm 3 m/S 734 mmHg 93%
    06:00 +12°C° 0 mm 3 m/S 734 mmHg 93%
    07:00 +12°C° 0 mm 4 m/S 734 mmHg 92%
    08:00 +13°C° 0 mm 4 m/S 734 mmHg 90%
    09:00 +13°C° 0 mm 4 m/S 734 mmHg 88%
    10:00 +14°C° 0 mm 5 m/S 734 mmHg 85%
    11:00 +14°C° 0 mm 4 m/S 734 mmHg 82%
    12:00 +15°C° 0 mm 4 m/S 735 mmHg 78%
    13:00 +17°C° 0 mm 4 m/S 735 mmHg 74%
    14:00 +15°C° 0 mm 4 m/S 735 mmHg 75%
    15:00 +16°C° 0 mm 3 m/S 735 mmHg 77%
    16:00 +16°C° 0 mm 2 m/S 735 mmHg 79%
    17:00 +15°C° 0 mm 2 m/S 735 mmHg 83%
    18:00 +13°C° 0 mm 2 m/S 735 mmHg 88%
    19:00 +12°C° 0 mm 1 m/S 735 mmHg 92%
    20:00 +12°C° 0 mm 1 m/S 736 mmHg 92%
    21:00 +12°C° 0 mm 1 m/S 736 mmHg 93%
    22:00 +12°C° 0 mm 1 m/S 736 mmHg 93%
    23:00 +11°C° 0 mm 1 m/S 736 mmHg 93%

    übermorgen, 26 Oktober, Donnerstag

    Zeit Temperatur Niederschläge Wind Luftdruck Luftfeuchtigkeit
    00:00 +11°C° 0 mm 1 m/S 736 mmHg 94%
    01:00 +11°C° 0 mm 1 m/S 736 mmHg 94%
    02:00 +11°C° 0 mm 1 m/S 736 mmHg 94%
    03:00 +11°C° 0 mm 1 m/S 736 mmHg 95%
    04:00 +10°C° 0 mm 1 m/S 736 mmHg 95%
    05:00 +10°C° 0 mm 1 m/S 736 mmHg 95%
    06:00 +10°C° 0 mm 1 m/S 736 mmHg 96%
    07:00 +10°C° 0 mm 1 m/S 736 mmHg 96%
    08:00 +10°C° 0 mm 2 m/S 736 mmHg 92%
    09:00 +13°C° 0 mm 2 m/S 736 mmHg 89%
    10:00 +14°C° 0 mm 2 m/S 737 mmHg 86%
    11:00 +15°C° 0 mm 2 m/S 737 mmHg 81%
    12:00 +16°C° 0 mm 2 m/S 736 mmHg 76%
    13:00 +17°C° 0 mm 2 m/S 736 mmHg 72%
    14:00 +17°C° 0 mm 2 m/S 736 mmHg 74%
    15:00 +16°C° 0 mm 2 m/S 736 mmHg 77%
    16:00 +16°C° 0 mm 1 m/S 736 mmHg 79%
    17:00 +15°C° 0 mm 1 m/S 736 mmHg 83%
    18:00 +14°C° 0 mm 1 m/S 736 mmHg 88%
    19:00 +13°C° 0 mm 1 m/S 736 mmHg 92%
    20:00 +13°C° 0 mm 1 m/S 735 mmHg 92%
    21:00 +12°C° 0 mm 1 m/S 735 mmHg 93%
    22:00 +12°C° 0 mm 1 m/S 735 mmHg 94%
    23:00 +12°C° 0,1 mm 1 m/S 735 mmHg 94%

    27 Oktober, Freitag

    Zeit Temperatur Niederschläge Wind Luftdruck Luftfeuchtigkeit
    00:00 +12°C° 0,1 mm 1 m/S 735 mmHg 95%
    01:00 +12°C° 0,1 mm 2 m/S 734 mmHg 96%
    02:00 +12°C° 0,2 mm 2 m/S 734 mmHg 96%
    03:00 +12°C° 0,2 mm 2 m/S 734 mmHg 96%
    04:00 +12°C° 0,2 mm 2 m/S 733 mmHg 96%
    05:00 +12°C° 0,3 mm 2 m/S 733 mmHg 95%
    06:00 +11°C° 0,3 mm 3 m/S 733 mmHg 95%
    07:00 +11°C° 0,3 mm 3 m/S 733 mmHg 94%
    08:00 +10°C° 0,7 mm 3 m/S 733 mmHg 93%
    09:00 +10°C° 0,7 mm 3 m/S 733 mmHg 92%
    10:00 +10°C° 0,7 mm 4 m/S 733 mmHg 91%
    11:00 +10°C° 0,4 mm 4 m/S 733 mmHg 88%
    12:00 +10°C° 0,4 mm 4 m/S 733 mmHg 85%
    13:00 +11°C° 0,4 mm 4 m/S 734 mmHg 82%
    14:00 +10°C° 0,1 mm 4 m/S 734 mmHg 81%
    15:00 +10°C° 0,1 mm 4 m/S 734 mmHg 80%
    16:00 +10°C° 0,1 mm 4 m/S 734 mmHg 79%
    17:00 +8°C° 0,1 mm 4 m/S 734 mmHg 82%
    18:00 +8°C° 0,1 mm 3 m/S 734 mmHg 85%
    19:00 +7°C° 0,1 mm 3 m/S 734 mmHg 87%
    20:00 +7°C° 0 mm 3 m/S 735 mmHg 88%
    21:00 +5°C° 0 mm 3 m/S 735 mmHg 89%
    22:00 +6°C° 0 mm 2 m/S 735 mmHg 89%
    23:00 +6°C° 0 mm 2 m/S 735 mmHg 90%

    28 Oktober, Samstag

    Zeit Temperatur Niederschläge Wind Luftdruck Luftfeuchtigkeit
    00:00 +6°C° 0 mm 2 m/S 735 mmHg 91%
    01:00 +6°C° 0 mm 2 m/S 735 mmHg 91%
    02:00 +6°C° 0 mm 2 m/S 735 mmHg 92%
    03:00 +6°C° 0 mm 2 m/S 734 mmHg 92%
    04:00 +5°C° 0 mm 2 m/S 734 mmHg 93%
    05:00 +5°C° 0 mm 2 m/S 734 mmHg 92%
    06:00 +5°C° 0 mm 2 m/S 734 mmHg 92%
    07:00 +5°C° 0 mm 2 m/S 733 mmHg 91%
    08:00 +5°C° 0 mm 3 m/S 733 mmHg 88%
    09:00 +5°C° 0 mm 3 m/S 733 mmHg 84%
    10:00 +7°C° 0 mm 3 m/S 733 mmHg 81%
    11:00 +7°C° 0 mm 3 m/S 732 mmHg 78%
    12:00 +6°C° 0 mm 4 m/S 731 mmHg 75%
    13:00 +7°C° 0 mm 4 m/S 730 mmHg 72%
    14:00 +7°C° 0 mm 4 m/S 730 mmHg 74%
    15:00 +7°C° 0 mm 4 m/S 729 mmHg 75%
    16:00 +7°C° 0 mm 3 m/S 729 mmHg 76%
    17:00 +7°C° 0 mm 3 m/S 728 mmHg 80%
    18:00 +7°C° 0 mm 3 m/S 728 mmHg 83%
    19:00 +7°C° 0 mm 3 m/S 727 mmHg 87%
    20:00 +7°C° 0,1 mm 3 m/S 727 mmHg 88%
    21:00 +6°C° 0,1 mm 4 m/S 726 mmHg 89%
    22:00 +6°C° 0,1 mm 4 m/S 726 mmHg 90%
    23:00 +6°C° 0,2 mm 4 m/S 726 mmHg 90%

    29 Oktober, Sonntag

    Zeit Temperatur Niederschläge Wind Luftdruck Luftfeuchtigkeit
    00:00 +6°C° 0,2 mm 5 m/S 725 mmHg 89%
    01:00 +6°C° 0,2 mm 5 m/S 725 mmHg 89%
    02:00 +6°C° 0,2 mm 5 m/S 725 mmHg 87%
    03:00 +5°C° 0,2 mm 5 m/S 725 mmHg 85%
    04:00 +5°C° 0,2 mm 5 m/S 725 mmHg 83%
    05:00 +5°C° 0,3 mm 5 m/S 725 mmHg 83%
    06:00 +3°C° 0,3 mm 5 m/S 726 mmHg 83%
    07:00 +4°C° 0,3 mm 4 m/S 726 mmHg 83%
    08:00 +3°C° 0,2 mm 5 m/S 727 mmHg 81%
    09:00 +5°C° 0,2 mm 5 m/S 727 mmHg 78%
    10:00 +4°C° 0,2 mm 6 m/S 728 mmHg 75%
    11:00 +5°C° 0,2 mm 6 m/S 728 mmHg 73%
    12:00 +5°C° 0,2 mm 6 m/S 728 mmHg 72%
    13:00 +7°C° 0,2 mm 6 m/S 729 mmHg 70%
    14:00 +6°C° 0,1 mm 5 m/S 729 mmHg 70%
    15:00 +6°C° 0,1 mm 5 m/S 729 mmHg 71%
    16:00 +6°C° 0,1 mm 5 m/S 729 mmHg 71%
    17:00 +5°C° 0 mm 4 m/S 730 mmHg 75%
    18:00 +4°C° 0 mm 4 m/S 730 mmHg 79%
    19:00 +4°C° 0 mm 3 m/S 731 mmHg 83%
    20:00 +4°C° 0 mm 3 m/S 731 mmHg 83%
    21:00 +4°C° 0 mm 3 m/S 731 mmHg 83%
    22:00 +4°C° 0 mm 3 m/S 732 mmHg 83%
    23:00 +4°C° 0 mm 3 m/S 732 mmHg 85%

    30 Oktober, Montag

    Zeit Temperatur Niederschläge Wind Luftdruck Luftfeuchtigkeit
    00:00 +4°C° 0 mm 3 m/S 732 mmHg 86%
    01:00 +5°C° 0 mm 2 m/S 732 mmHg 88%
    02:00 +5°C° 0 mm 2 m/S 732 mmHg 89%
    03:00 +5°C° 0 mm 2 m/S 732 mmHg 89%
    04:00 +5°C° 0 mm 2 m/S 732 mmHg 90%
    05:00 +4°C° 0,1 mm 3 m/S 732 mmHg 90%
    06:00 +4°C° 0,1 mm 3 m/S 732 mmHg 90%
    07:00 +5°C° 0,1 mm 3 m/S 732 mmHg 90%
    08:00 +5°C° 0,1 mm 3 m/S 732 mmHg 90%
    09:00 +5°C° 0,1 mm 3 m/S 732 mmHg 89%
    10:00 +6°C° 0,1 mm 4 m/S 732 mmHg 89%
    11:00 +6°C° 0 mm 4 m/S 732 mmHg 89%
    12:00 +7°C° 0 mm 4 m/S 732 mmHg 88%
    13:00 +7°C° 0 mm 4 m/S 733 mmHg 87%
    14:00 +8°C° 0,1 mm 3 m/S 733 mmHg 88%
    15:00 +8°C° 0,1 mm 3 m/S 733 mmHg 89%
    16:00 +8°C° 0,1 mm 3 m/S 733 mmHg 91%
    17:00 +8°C° 0 mm 3 m/S 733 mmHg 92%
    18:00 +8°C° 0 mm 2 m/S 734 mmHg 94%
    19:00 +8°C° 0 mm 2 m/S 734 mmHg 95%
    20:00 +8°C° 0 mm 2 m/S 734 mmHg 96%
    21:00 +8°C° 0 mm 2 m/S 735 mmHg 96%
    22:00 +7°C° 0 mm 2 m/S 735 mmHg 96%
    23:00 +8°C° 0 mm 1 m/S 735 mmHg 97%
    Mehr zeigen